Kivalina, AK

3:38 PM AKDT on September 17, 2019 (GMT -0800)
Kivalina

Weather History for PAVL - August, 2019

Change the Weather History Date:

Friday, August 23, 2019

  Actual Average (PAWN) Record (PAWN)
Temperature  
Mean Temperature 50 °F -  
Max Temperature 54 °F 55 °F 77 °F (2004)
Min Temperature 45 °F 38 °F 24 °F (1996)
Degree Days  
Heating Degree Days 15    
Moisture  
Dew Point 43 °F    
Average Humidity 80    
Maximum Humidity 97    
Minimum Humidity 57    
Precipitation  
Precipitation 0.00 in - - ()
Sea Level Pressure  
Sea Level Pressure 29.79 in    
Wind  
Wind Speed 15 mph ()    
Max Wind Speed 26 mph    
Max Gust Speed 28 mph    
Visibility 9.1 miles    
Events      
Averages and records for this station are not official NWS values.
T = Trace of Precipitation, MM = Missing Value Source: Averaged Metar Reports

Daily Weather History Graph

Daily Weather History Graph

Search for Another Location

Airport or City:

Astronomy

Aug. 23, 2019 Rise Set
Actual Time 6:52 AM AKDT 11:06 PM AKDT
Civil Twilight 5:37 AM AKDT 12:19 AM AKDT
Nautical Twilight 3:33 AM AKDT 2:28 AM AKDT
Astronomical Twilight Sun does not set Sun does not set
Moon 11:38 PM AKDT (8/23) 6:41 PM AKDT (8/23)
Length of Visible Light 18h 41m
Length of Day
16h 13m
Waning Gibbous, 48% of the Moon is Illuminated
Aug 23
Waning Gibbous
Aug 30
New
Sep 5
First Quarter
Sep 13
Full
Sep 21
Last Quarter

Hourly Weather History & Observations

Time (AKDT) Temp. Windchill Dew Point Humidity Pressure Visibility Wind Dir Wind Speed Gust Speed Precip Events Conditions
12:18 AM 46.9 °F - 43.0 °F 86% 29.79 in 10.0 mi NW 15.0 mph - N/A   Overcast
12:35 AM 46.9 °F - 44.1 °F 90% 29.78 in 10.0 mi NNW 13.8 mph - N/A   Overcast
12:53 AM 46.9 °F - 44.1 °F 90% 29.78 in 9.0 mi NW 12.7 mph - N/A   Overcast
1:25 AM 46.9 °F - 46.0 °F 97% 29.78 in 8.0 mi NW 13.8 mph - N/A   Overcast
1:38 AM 48.0 °F - 46.0 °F 93% 29.77 in 8.0 mi NW 13.8 mph - N/A   Overcast
1:46 AM 48.0 °F - 46.0 °F 93% 29.77 in 8.0 mi NW 11.5 mph - N/A   Overcast
1:53 AM 48.0 °F - 46.0 °F 93% 29.78 in 8.0 mi NW 15.0 mph - N/A   Overcast
2:43 AM 48.9 °F - 46.0 °F 90% 29.76 in 7.0 mi NW 16.1 mph - N/A   Overcast
2:53 AM 48.9 °F - 46.0 °F 90% 29.76 in 8.0 mi NW 17.3 mph - N/A   Overcast
4:53 AM 48.9 °F - 46.0 °F 90% 29.76 in 9.0 mi NW 19.6 mph - N/A   Overcast
5:53 AM 48.9 °F - 46.0 °F 90% 29.75 in 10.0 mi NNW 24.2 mph - N/A   Clear
6:53 AM 48.0 °F - 45.0 °F 89% 29.76 in 10.0 mi NNW 20.7 mph - N/A   Clear
7:53 AM 46.9 °F - 45.0 °F 93% 29.78 in 9.0 mi NNW 18.4 mph - N/A   Partly Cloudy
8:31 AM 46.9 °F - 44.1 °F 90% 29.79 in 9.0 mi North 11.5 mph - N/A   Overcast
8:53 AM 46.9 °F - 43.0 °F 86% 29.79 in 9.0 mi North 16.1 mph - N/A   Overcast
9:10 AM 46.9 °F - 44.1 °F 90% 29.79 in 9.0 mi NNW 18.4 mph - N/A   Scattered Clouds
9:53 AM 46.9 °F - 42.1 °F 83% 29.80 in 10.0 mi North 20.7 mph - N/A   Clear
11:53 AM 48.0 °F - 41.0 °F 77% 29.81 in 9.0 mi North 19.6 mph - N/A   Partly Cloudy
12:53 PM 50.0 °F - 41.0 °F 71% 29.81 in 10.0 mi North 18.4 mph - N/A   Scattered Clouds
1:03 PM 50.0 °F - 41.0 °F 71% 29.81 in 10.0 mi North 20.7 mph 27.6 mph N/A   Mostly Cloudy
1:18 PM 50.0 °F - 39.9 °F 68% 29.81 in 10.0 mi North 26.5 mph - N/A   Scattered Clouds
1:53 PM 51.1 °F - 41.0 °F 68% 29.81 in 10.0 mi North 21.9 mph - N/A   Clear
2:53 PM 52.0 °F - 41.0 °F 66% 29.82 in 10.0 mi North 20.7 mph - N/A   Clear
3:53 PM 53.1 °F - 41.0 °F 64% 29.83 in 10.0 mi North 20.7 mph 27.6 mph N/A   Clear
4:53 PM 54.0 °F - 39.9 °F 59% 29.82 in 10.0 mi North 15.0 mph - N/A   Clear
5:53 PM 54.0 °F - 39.9 °F 59% 29.82 in 9.0 mi North 19.6 mph - N/A   Clear
6:53 PM 54.0 °F - 39.0 °F 57% 29.82 in 9.0 mi North 21.9 mph - N/A   Clear
8:53 PM 52.0 °F - 41.0 °F 66% 29.82 in 8.0 mi NNW 18.4 mph - N/A   Clear
10:53 PM 48.9 °F - 41.0 °F 74% 29.82 in 8.0 mi NNW 18.4 mph - N/A   Clear
11:53 PM 45.0 °F 38.9 °F 39.0 °F 80% 29.83 in 10.0 mi North 12.7 mph - N/A   Clear